Pagina principale
METAR-TAF:

METAR-TAF

Aeroporti :

Frontone, Italia

latitudine: 43-31N, longitudine: 012-44E, altezza: 570 m

Osservazione

Il bollettino è stato emesso 41 minuti fa, alle 23:55 UTC
Vento 3 kt da sud
Temperature 17°C
Umidità 77%
Pressione 1016 hPa
Visibilità 10 km o più
nessuna nube inferiore a 1500 m e nessun cumulonembo

METAR: LIVF 272355Z 19003KT CAVOK 17/13 Q1016

Ora: 02:36 (00:36 UTC)


TAF: mancante

Osservazioni e previsioni meteorologiche di più di 4000 aeroporti (messaggi METAR e TAF).

Le stazioni disponibili sono rappresentate dai dischi gialli e rossi sulla carta.

Puntare il mouse per vedere il nome della stazione.

Clicca sopra per visualizzare le osservazioni e previsioni meteorologiche.

Per cambiare la mappa : fare clic sui pulsanti verdi con una croce nera per ingrandire, il pulsante verde con un trattino per diminuire, o sulla freccia verde per le mappe adiacenti.


METAR-TAF: